Regional Weather Roundup
Issued by NWS

Home | Current Version | Previous Version | Text Only | Print | Product List | Glossary Off
Versions: 1 2 3 4 5 6 7 8 9 10 11 12 13 14 15 16 17 18 19 20 21 22 23 24 25 26 27 28 29 30 31 32 33 34 35 36 37 38 39 40 41 42 43 44 45 46 47 48 49 50

000
ASUS45 KABQ 252310
RWRNM
WEATHER ROUNDUP FOR NEW MEXICO
NATIONAL WEATHER SERVICE ALBUQUERQUE NM
500 PM MDT SAT APR 25 2015

NOTE: "FAIR" MEANS FEW OR NO CLOUDS BELOW 12,000 FEET AGL WITH NO
       SIGNIFICANT WEATHER OR OBSTRUCTIONS TO VISION.

      THIS PRODUCT IS RELEASED AS TWO VERSIONS.  ONE VERSION NEAR
      THE TOP OF THE HOUR CONTAINING PRELIMINARY DATA FROM ALBUQUERQUE
      AND OTHER STATIONS.  A FINAL VERSION WITH ADDITIONAL DATA IS
      ISSUED ABOUT 10 MINUTES AFTER THE HOUR.

NMZ501-503-504-510>518-260000-
NORTHWEST PLATEAU/NORTHCENTRAL MOUNTAINS

CITY           SKY/WX    TMP DP  RH WIND       PRES   REMARKS
FARMINGTON     PTSUNNY   62  30  29 W8G20     29.76F
LOS ALAMOS     CLOUDY    55  26  32 CALM      29.88S
SANTA FE       MOSUNNY   63  26  24 W12G20    29.84F
TAOS           PTSUNNY   57  28  33 W15       29.86S
ANGEL FIRE     FAIR      49  27  42 W12G28    29.90S

$$
NMZ402-403-502-505>509-260000-
WESTCENTRAL MOUNTAINS/SOUTHWEST MOUNTAINS

CITY           SKY/WX    TMP DP  RH WIND       PRES   REMARKS
GALLUP         MOSUNNY   62  23  22 SW24G31   29.82F
GRANTS         CLOUDY    63  21  20 SW14G24   29.84F
SILVER CITY      N/A     68  23  18 W20G26    29.90F

$$
NMZ407-409-411-412-260000-
SOUTHERN DESERTS

CITY           SKY/WX    TMP DP  RH WIND       PRES   REMARKS
LORDSBURG      FAIR      73  25  16 W14G26    29.83F
DEMING         SUNNY     76  20  12 W15G30    29.83F
LAS CRUCES     SUNNY     78  15   9 SW24G31   29.83F
HOLLOMAN AFB   MOSUNNY   78  18  10 SW18      29.78F
ALAMOGORDO     MOSUNNY   77  19  11 S17G23    29.80F
T OR C         MOSUNNY   74  20  13 W17G26    29.78F

$$
NMZ519>523-260000-
CENTRAL VALLEYS/CENTRAL HIGHLANDS

CITY           SKY/WX    TMP DP  RH WIND       PRES   REMARKS
ALBUQUERQUE    PTSUNNY   69  24  18 NW12G22   29.79F
DOUBLE EAGLE   PTSUNNY   68  25  19 W16G25    29.81F
MORIARTY ARPT  FAIR      67  22  17 NW15G23   29.83F
CLINES CORNERS PTSUNNY   62  24  23 W29G35    29.83F
BELEN          MOCLDY    67  25  20 N5G17     29.78S
SOCORRO        PTSUNNY   69  25  18 NW3G17    29.78S

$$
NMZ524>526-539-540-260000-
SOUTHCENTRAL MOUNTAINS

CITY           SKY/WX    TMP DP  RH WIND       PRES   REMARKS
RUIDOSO        SUNNY     63  23  22 W13G21    29.90S

$$
NMZ527>531-260000-
NORTHEAST HIGHLANDS/NORTHEAST PLAINS

CITY           SKY/WX    TMP DP  RH WIND       PRES   REMARKS
LAS VEGAS      MOSUNNY   62  24  23 W25       29.83R
RATON          CLOUDY    69  23  17 W15G25    29.71S
CLAYTON        PTSUNNY   72  23  16 S15       29.68F

$$
NMZ532>537-260000-
EASTCENTRAL PLAINS

CITY           SKY/WX    TMP DP  RH WIND       PRES   REMARKS
TUCUMCARI      SUNNY     76  25  15 W23G32    29.68S
CANNON AFB     SUNNY     75  27  16 W17G32    29.74S
CLOVIS AIRPORT SUNNY     75  28  17 SW17G29   29.73S

$$
NMZ028-029-538-260000-
SOUTHEAST PLAINS

CITY           SKY/WX    TMP DP  RH WIND       PRES   REMARKS
ROSWELL        SUNNY     80  25  13 W16G23    29.71F
ARTESIA        SUNNY     81  23  12 SW26      29.74F
CARLSBAD       SUNNY     82  17   9 W20G33    29.74F
HOBBS          SUNNY     77  23  13 SW21G31   29.77F


$$


USA.gov is the U.S. government's official web portal to all federal, state and local government web resources and services.